[[{"header":{"parameterUnit":"m.s-1","parameterCategory":1,"la1":30.2991,"la2":30.254,"lo1":-89.0895,"lo2":-89.0444,"dy":0.0017,"dx":0.0017,"nx":28,"ny":28,"refTime":"2024-07-03T09:00:00:Z","depth":0,"parameterNumber":2,"parameterNumberName":"U-component_of_WINDS"},"data":[0,0,0,0,0,0,0,0,0,0,0,0,0,0,0,0,0,0,0,0,0,0,0,0,0,0,0,0,0,0,0,0,0,0,0,0,0,0,0,0,0,0,0,0,0,0,0,0,0,0,0,0,0,0,0,0,0,0,0.0169,0.0169,0,0.0215,0.0215,0.0216,0.0216,0.0215,0.0215,0.0214,0.0263,0.0265,0.0266,0,0,0,0,0,0,0,0,0,0,0,0,0,0.0081,0.0083,0.0169,0.0169,0.017,0.0215,0.0215,0.0216,0.0216,0.0215,0.0215,0.0214,0.0262,0.0264,0.0267,0,0,0,0,0,0,0,0,0,0,0,0,0,0.0123,0.0083,0.0169,0.0175,0.0176,0.0215,0.0215,0.0216,0.0216,0.0215,0.0214,0.0214,0.0261,0.0264,0.0267,0.0302,0,0,0.0275,0.0277,0,0,0,0,0,0,0,0,0.012,0.0126,0.0174,0.0175,0.0176,0.0209,0.0202,0.0245,0.0216,0.0201,0.0214,0.0213,0.0246,0.025,0.026,0.0304,0.0306,0.0276,0.0277,0.0279,0.0279,0,0,0,0,0,0,0,0.0117,0.0124,0.0187,0.0174,0.0176,0.0176,0.0181,0.021,0.0228,0.0202,0.0203,0.0208,0.0246,0.0258,0.0261,0.0307,0.0276,0.0278,0.028,0.0281,0.0382,0.0383,0,0,0,0,0,0,0.0113,0.0121,0.0186,0.0188,0.0145,0.0178,0.0184,0.0199,0.0228,0.0231,0.0209,0.0208,0.0253,0.0258,0.0263,0.0306,0.0278,0.0281,0.0283,0.0381,0.0382,0.0383,0,0,0,0,0,0,0.0111,0.0119,0.0184,0.0155,0.0163,0.0181,0.0198,0.0201,0.0212,0.0232,0.0235,0.0217,0.0253,0.0259,0.0292,0.0307,0.0282,0.0285,0.0379,0.0381,0.0382,0.0392,0,0,0,0,0,0,0.0109,0.0118,0.0132,0.0155,0.0165,0.0212,0.0199,0.0202,0.0217,0.0216,0.0241,0.0244,0.0253,0.0288,0.0295,0.0311,0.0287,0.0378,0.038,0.0382,0.039,0.0393,0.0396,0,0,0,0,0,0.0106,0.0133,0.0132,0.014,0.0182,0.0213,0.0218,0.0227,0.0218,0.0232,0.0244,0.0244,0.0305,0.0291,0.0299,0.0316,0.0377,0.038,0.0382,0.0389,0.0393,0.0396,0,0,0,0,0,0,0.0111,0.0136,0.0136,0.0171,0.019,0.0213,0.023,0.0231,0.0252,0.0251,0.0261,0.0266,0.0299,0.0311,0.0296,0.0351,0.034,0.0344,0.0342,0.0346,0.0349,0.0346,0.0289,0,0,0,0,0,0.0116,0.0139,0.0159,0.0189,0.0198,0.0212,0.0226,0.0231,0.0251,0.0259,0.0274,0.0293,0.0317,0.0332,0.0355,0.0392,0.0397,0.0407,0.041,0.0412,0.0416,0.0436,0.044,0.039,0.039,0.039,0,0,0.0127,0.0144,0.0158,0.019,0.0205,0.0228,0.0219,0.0244,0.0262,0.0263,0.0294,0.0306,0.0329,0.0363,0.0379,0.0374,0.0431,0.0415,0.0417,0.0419,0.0438,0.0443,0.0447,0.0392,0.0392,0.0391,0,0,0.016,0.0174,0.02,0.0215,0.0237,0.0247,0.0253,0.0276,0.0283,0.0315,0.0316,0.0337,0.0378,0.0393,0.0407,0.0444,0.0444,0.0451,0.0467,0.0486,0.049,0.0494,0.0507,0.0511,0.0454,0.0454,0.0454,0,0.0171,0.0206,0.0214,0.0239,0.0253,0.0254,0.028,0.0295,0.0323,0.0333,0.0327,0.0377,0.0392,0.0431,0.044,0.045,0.0458,0.0449,0.0489,0.0492,0.0496,0.0509,0.0514,0.0455,0.0455,0.0455,0.0455,0,0.0218,0.0242,0.0261,0.0288,0.0304,0.033,0.0341,0.0357,0.036,0.037,0.0402,0.0421,0.0447,0.0456,0.046,0.0495,0.0491,0.0487,0.0475,0.0501,0.0513,0.0518,0.0456,0.0456,0.0456,0.0456,0,0,0.0256,0.0286,0.0293,0.0305,0.0329,0.0348,0.0374,0.0399,0.0412,0.0432,0.0453,0.0487,0.0483,0.0498,0.0503,0.052,0.0548,0.0514,0.0515,0.052,0.0588,0.0591,0.0596,0.0548,0.0549,0.055,0.0586,0,0.029,0.0335,0.0343,0.0382,0.0405,0.0406,0.0428,0.0445,0.0455,0.0476,0.0487,0.051,0.0503,0.0512,0.0529,0.0541,0.0562,0.0539,0.0569,0.057,0.0563,0.0603,0.0606,0.0639,0.0591,0.0591,0.0592,0,0.0337,0.0357,0.0399,0.042,0.0429,0.0449,0.0473,0.0492,0.0512,0.0518,0.0534,0.0537,0.0564,0.0551,0.0588,0.0572,0.0584,0.0592,0.0594,0.0597,0.0583,0.0607,0.065,0.0655,0.06,0.0599,0.0598,0,0.036,0.0398,0.0427,0.0438,0.0463,0.0477,0.0488,0.0507,0.0521,0.0542,0.0551,0.0575,0.0587,0.0606,0.0615,0.0605,0.0651,0.0639,0.0657,0.0657,0.0667,0.0666,0.0712,0.0675,0.0675,0.0675,0.0675,0,0.0398,0.0423,0.0438,0.0456,0.0484,0.0493,0.0521,0.0531,0.0548,0.0569,0.0571,0.059,0.0602,0.0623,0.063,0.0659,0.0665,0.0671,0.0673,0.0671,0.067,0.0679,0.0677,0.0676,0.0676,0.0675,0.0675,0,0.0428,0.0439,0.0471,0.0492,0.0498,0.0518,0.0536,0.0554,0.0563,0.0589,0.0596,0.0611,0.0636,0.0647,0.0677,0.0682,0.0716,0.0716,0.0709,0.071,0.0727,0.0725,0.0781,0.0788,0.0745,0.0746,0.0746,0,0.0452,0.0471,0.0494,0.0508,0.0519,0.0541,0.0556,0.0565,0.058,0.0603,0.0618,0.0643,0.0663,0.0702,0.0716,0.074,0.074,0.0758,0.0744,0.0741,0.0741,0.0739,0.0741,0.0761,0.0761,0.0762,0.0762,0,0.0493,0.0497,0.0518,0.054,0.0557,0.0575,0.0593,0.0604,0.0616,0.0633,0.0658,0.0673,0.0704,0.0728,0.0752,0.0764,0.0765,0.0766,0.0772,0.077,0.0765,0.0768,0.0716,0.0765,0.0765,0.0765,0.0764,0.0764,0.052,0.0538,0.0556,0.0579,0.0593,0.061,0.0627,0.0639,0.0659,0.0685,0.0689,0.0715,0.0734,0.0767,0.0779,0.08,0.0796,0.0804,0.0806,0.0808,0.0809,0.0761,0.0805,0.0805,0.0805,0.0805,0.0805,0,0.0561,0.0573,0.0594,0.0618,0.0636,0.0635,0.0654,0.067,0.0693,0.071,0.073,0.0758,0.0782,0.0797,0.0821,0.0835,0.0836,0.0841,0.084,0.0843,0.0811,0.0804,0.084,0.084,0.084,0.084,0.084,0.084,0.0584,0.0613,0.0619,0.0655,0.0667,0.0693,0.0704,0.0719,0.0733,0.0764,0.0784,0.0793,0.081,0.0835,0.0857,0.0861,0.0869,0.0875,0.0878,0.0849,0.0845,0.0841,0.0835,0.0876,0.0876,0.0908,0.0908,0.0909]},{"header":{"parameterUnit":"m.s-1","parameterCategory":1,"la1":30.2991,"la2":30.254,"lo1":-89.0895,"lo2":-89.0444,"dy":0.0017,"dx":0.0017,"nx":28,"ny":28,"refTime":"2024-07-03T09:00:00:Z","depth":0,"parameterNumber":3,"parameterNumberName":"V-component_of_WINDS"},"data":[0,0,0,0,0,0,0,0,0,0,0,0,0,0,0,0,0,0,0,0,0,0,0,0,0,0,0,0,0,0,0,0,0,0,0,0,0,0,0,0,0,0,0,0,0,0,0,0,0,0,0,0,0,0,0,0,0,0,3.6197,3.6197,0,3.6171,3.6171,3.6171,3.6086,3.6084,3.6082,3.608,3.6055,3.6056,3.6057,0,0,0,0,0,0,0,0,0,0,0,0,0,3.6173,3.6174,3.6197,3.6197,3.6196,3.6171,3.6171,3.6171,3.6086,3.6084,3.6081,3.6079,3.6055,3.6056,3.6057,0,0,0,0,0,0,0,0,0,0,0,0,0,3.6169,3.6175,3.6197,3.6151,3.6147,3.6171,3.6171,3.617,3.6087,3.6084,3.6081,3.6078,3.6054,3.6056,3.6058,3.6125,0,0,3.6063,3.6063,0,0,0,0,0,0,0,0,3.617,3.617,3.6158,3.6154,3.6149,3.6129,3.6153,3.6155,3.6087,3.6109,3.608,3.6077,3.6082,3.6081,3.6083,3.6124,3.6123,3.6063,3.6064,3.6065,3.6065,0,0,0,0,0,0,0,3.617,3.6171,3.6187,3.6158,3.6153,3.6132,3.6128,3.6153,3.6112,3.6107,3.6101,3.6099,3.6079,3.6081,3.6082,3.6122,3.6063,3.6064,3.6065,3.6066,3.6216,3.6219,0,0,0,0,0,0,3.6177,3.6172,3.6188,3.6186,3.6153,3.6135,3.613,3.6138,3.6112,3.6105,3.6102,3.6095,3.608,3.608,3.608,3.6156,3.6065,3.6066,3.6067,3.6213,3.6217,3.622,0,0,0,0,0,0,3.6177,3.6179,3.6189,3.6177,3.6177,3.6138,3.6148,3.6139,3.6141,3.6107,3.61,3.6111,3.6078,3.6078,3.6114,3.6154,3.6067,3.6068,3.621,3.6214,3.6219,3.631,0,0,0,0,0,0,3.6176,3.6179,3.6205,3.6178,3.6178,3.6223,3.615,3.6141,3.6144,3.6136,3.6114,3.6108,3.6075,3.6112,3.6116,3.6155,3.607,3.6206,3.6212,3.6217,3.6303,3.6317,3.6329,0,0,0,0,0,3.6176,3.6232,3.6206,3.6209,3.6208,3.6226,3.6225,3.6186,3.6148,3.6173,3.6151,3.6109,3.615,3.6117,3.612,3.616,3.6203,3.621,3.6217,3.6297,3.6314,3.6328,0,0,0,0,0,0,3.6265,3.6228,3.6199,3.6248,3.6241,3.6211,3.6241,3.6205,3.6209,3.6201,3.6152,3.6148,3.6191,3.6179,3.6143,3.6224,3.6169,3.6177,3.6229,3.6245,3.6258,3.6259,3.6071,0,0,0,0,0,3.629,3.6307,3.6274,3.632,3.6318,3.6281,3.6287,3.6257,3.6247,3.6244,3.6224,3.6217,3.6228,3.6236,3.6244,3.6301,3.6295,3.6331,3.6344,3.6354,3.6361,3.6389,3.6405,3.6242,3.6242,3.6242,0,0,3.6343,3.6324,3.6338,3.6338,3.6328,3.6347,3.6278,3.6301,3.6314,3.6247,3.628,3.6266,3.6254,3.63,3.632,3.6292,3.6405,3.6363,3.6372,3.6373,3.6398,3.6413,3.6427,3.6247,3.6246,3.6245,0,0,3.6447,3.6436,3.6473,3.6464,3.6451,3.6425,3.6434,3.641,3.6398,3.6429,3.6379,3.6394,3.6415,3.6408,3.6407,3.6509,3.647,3.6513,3.658,3.6608,3.6621,3.6632,3.6667,3.668,3.652,3.6521,3.6521,0,3.6515,3.654,3.6497,3.6522,3.6523,3.6463,3.6499,3.6494,3.6484,3.6486,3.6455,3.6478,3.6466,3.6509,3.6534,3.6536,3.6544,3.6515,3.6622,3.6633,3.6643,3.6676,3.6689,3.6526,3.6525,3.6525,3.6524,0,3.6622,3.6641,3.6672,3.6663,3.6668,3.6699,3.666,3.667,3.664,3.6618,3.6651,3.6635,3.6638,3.6646,3.6618,3.6686,3.6669,3.6631,3.6575,3.6664,3.6694,3.6707,3.6533,3.6531,3.653,3.6529,0,0,3.6783,3.6748,3.6761,3.6755,3.6735,3.6749,3.6777,3.6779,3.6788,3.6784,3.6806,3.6824,3.6788,3.6788,3.6758,3.6783,3.6863,3.6741,3.674,3.6763,3.6936,3.6964,3.6979,3.6837,3.684,3.6841,3.6936,0,3.6881,3.6927,3.6888,3.6941,3.6957,3.69,3.6924,3.6915,3.6895,3.6906,3.6884,3.6897,3.6849,3.6848,3.687,3.6848,3.6897,3.6841,3.6857,3.6858,3.6861,3.6995,3.7025,3.7115,3.6948,3.695,3.6951,0,3.7002,3.7002,3.7056,3.7031,3.7036,3.7059,3.7058,3.7069,3.7057,3.704,3.704,3.7003,3.7028,3.6975,3.7009,3.6973,3.6977,3.6967,3.697,3.6969,3.691,3.6997,3.7143,3.7157,3.697,3.6968,3.6967,0,3.7112,3.7125,3.7159,3.7156,3.7129,3.7146,3.7135,3.712,3.7124,3.7123,3.7125,3.7127,3.7129,3.7132,3.7096,3.7061,3.7135,3.7079,3.7122,3.7123,3.714,3.7139,3.7288,3.7145,3.7145,3.7144,3.7144,0,3.7226,3.7261,3.7208,3.7228,3.7266,3.7221,3.726,3.7243,3.7231,3.7247,3.7198,3.7215,3.7168,3.7179,3.7152,3.7185,3.7186,3.7173,3.7165,3.7177,3.7179,3.7179,3.7171,3.7148,3.7147,3.7146,3.7146,0,3.7355,3.7321,3.7353,3.7324,3.7318,3.7347,3.7322,3.734,3.7316,3.7338,3.734,3.7304,3.7315,3.728,3.7286,3.7268,3.7315,3.7297,3.7319,3.7313,3.7358,3.7354,3.7512,3.753,3.7376,3.7377,3.7379,0,3.7429,3.7454,3.7428,3.7435,3.7426,3.7439,3.7442,3.7399,3.7404,3.7392,3.7412,3.7418,3.7422,3.7442,3.7417,3.7421,3.7402,3.7457,3.7403,3.7413,3.7402,3.7401,3.7403,3.7468,3.747,3.7472,3.7473,0,3.7564,3.7545,3.7551,3.7552,3.7556,3.7555,3.7549,3.7558,3.7512,3.7521,3.7531,3.7533,3.7539,3.7546,3.7545,3.7534,3.7496,3.749,3.75,3.7512,3.7523,3.7517,3.7349,3.7487,3.7486,3.7485,3.7484,3.7483,3.7667,3.7686,3.767,3.7678,3.767,3.7666,3.7681,3.7659,3.7667,3.7667,3.7642,3.7657,3.7644,3.7637,3.763,3.7642,3.7617,3.7632,3.7635,3.7639,3.7646,3.7522,3.7642,3.7641,3.7641,3.764,3.764,0,3.7799,3.7785,3.7793,3.7787,3.7793,3.7756,3.7748,3.7756,3.777,3.776,3.7764,3.7776,3.7782,3.7757,3.776,3.7774,3.7757,3.7777,3.7775,3.7773,3.7669,3.766,3.779,3.779,3.779,3.779,3.779,3.779,3.7868,3.7898,3.7878,3.7904,3.789,3.7904,3.7902,3.7899,3.789,3.7905,3.791,3.7893,3.7877,3.7879,3.7883,3.7876,3.7879,3.7904,3.7891,3.7795,3.778,3.7766,3.7757,3.7906,3.7906,3.7993,3.7994,3.7994]}]]